Showing default

EXACTVIEW-1, 38709

Orbit data source: Space-Track

EXACTVIEW-1, 38709 is a payload satellite owned by exactEarth (CA) in SSO that was launched on Sun, 22 Jul 2012 UTC via a SOYUZ-FG launch vehicle from the Tyuratam Missile And Space Complex (TTMTR). Payload-class satellites include a variety of spacecraft equipped with specific instruments for various scientific and technological missions. These include communications satellites like Starlink; space stations such as the ISS; scientific satellites like the Hubble; Earth observation satellites from companies like Planet Labs, Umbra, and HawkEye 360; GPS; miniature CubeSats for education and research; and military/defense satellites.

Loading next visibility...
Identifier
38709, 2012-039C
Orbit
SSO
Last TLE update
21 hours ago
Origin
Manufacturer
SSTL (Astrium)
Mission
Operational Civil Communications
Bus & Motor
SSTL-100, Unknown motor
Mass
95 kg wet, 95 kg dry
Launch date (UTC)
2012-07-22 (13 years ago)
Launch vehicle
SOYUZ-FG
Launch site
Tyuratam Missile And Space Complex (TTMTR)
Object type
Payload
Rocket body
Debris
Shape & HBR
Box + 1 Pan, 0.9 m
Radar Cross Section
0.591 m², Medium (>0.1 m² and < 1m²)

Expand to show TLE details & history

TLE from 21 hours ago
0 EXACTVIEW-1
1 38709U 12039C   25186.28690911  .00000093  00000-0  59779-4 0  9993
2 38709  98.9547 291.4247 0011997  91.8474 268.4078 14.24825001673301
Epoch: 2025-07-05T06:53Z
TLE epoch observation values (Epoch: 2025-07-05T06:53:08.947Z)
Latitude
-0.00005°
Longitude
-95.38969°
Altitude
812.244 km
Speed
7.447 km/s
True Right ascension
19h 25m 41s
True Declination
0° 00' 00"
Sunlit
Object was in full shadow at epoch
Visualization orbit readout
Latitude
38.60182°
Longitude
92.68568°
Altitude
809.08 km
Speed
7.455 km/s
Apparent Right ascension
06h 00m 22s
Apparent Declination
2° 30' 29"
Sunlit
Object is in daylight
Visualization observer readout
Local Sidereal Time
15:43:09
Azimuth
315.002° NNW
Elevation
-37.22°
Doppler factor
1
Orbital elements
Apogee altitude
814.864 km
Perigee altitude
797.626 km
Semi-major axis
7,184.382 km
Eccentricity
0.0012
Inclination
98.9547°
RAAN
291.4247°
Arg. of periapsis
91.8474°
True anomaly
Unknown
Mean anomaly
268.4078°
Eccentric anomaly
Unknown
Mean motion
3.56418 °/min
Orbital period
101.01 mins
BSTAR
0.000059779
Loading maneuver chart data...
Loading SW <> Apogee altitude chart data...
Loading historical data...
Loading historical data...
Loading historical data...
Loading historical data...
Loading historical data...
Loading historical data...
Loading historical data...

EXACTVIEW-1 Visibility forecast

Observer location: undefined°, undefined°

Span
Click to sort rows by Start time (UTC) header in descending order
Start Az.
Max El. time (UTC)
Max El. Az.
Max El.
End time (UTC)
End Az.
9 mins2025-07-06 06:36:05.495Z147.564° SSE2025-07-06 06:40:05.495Z92.857° ESE39.518°2025-07-06 06:45:05.495Z355.927° N
4 mins2025-07-06 08:19:05.495Z246.426° WSW2025-07-06 08:21:05.495Z273.365° WNW15.928°2025-07-06 08:23:05.495Z298.322° NW
6 mins2025-07-06 18:54:05.495Z60.584° ENE2025-07-06 18:56:05.495Z89.573° E20.421°2025-07-06 19:00:05.495Z142.142° SSE
8 mins2025-07-06 20:33:05.495Z352.03° N2025-07-06 20:36:05.495Z299.079° NW34.609°2025-07-06 20:41:05.495Z220.411° SW
|